Location: Strada George Coșbuc
(47.6577°N, 23.5639°E)
Time: 08:17:42
(UTC+02:00)

ISS - Pass Details

Date: 02 August 2017
Orbit: 412 x 421 km, 51.6° (Epoch: 14 November)

Event Time Altitude Azimuth Distance (km) Brightness Sun altitude
Rises 21:56:25 0° 288° (WNW) 2,348 1.6 -8.9°
Reaches altitude 10° 21:58:49 10° 271° (W) 1,482 -0.1 -9.3°
Maximum altitude 22:01:23 21° 221° (SW) 992 -1.8 -9.6°
Drops below altitude 10° 22:03:57 10° 170° (S) 1,482 -1.4 -9.9°
Enters shadow 22:04:06 - 168° (SSE) 1,529 -1.4 -9.9°
